Weather History for Kalispell, MT

Change the Weather History Date:

Wednesday, May 22, 2013

  Actual Average Record
Temperature  
Mean Temperature 51 °F 54 °F  
Max Temperature 64 °F 67 °F 86 °F (1988)
Min Temperature 37 °F 40 °F 26 °F (1987)
Degree Days  
Heating Degree Days 14 12  
Month to date heating degree days 242 319  
Since 1 July heating degree days 7147 7730  
Cooling Degree Days 0 0  
Month to date cooling degree days 0 0  
Year to date cooling degree days 0 0  
Growing Degree Days 1 (Base 50)    
Moisture  
Dew Point 41 °F    
Average Humidity 68    
Maximum Humidity 93    
Minimum Humidity 43    
Precipitation  
Precipitation 0.94 in 0.07 in 0.94 in (2013)
Month to date precipitation 1.76 1.25  
Year to date precipitation 5.11 5.88  
Snow  
Snow 0.00 in - - ()
Month to date snowfall T  
Year to date snowfall 9.2  
Since 1 July snowfall 18.0  
Snow Depth 0.00 in    
Sea Level Pressure  
Sea Level Pressure 29.81 in    
Wind  
Wind Speed 9 mph (SSE)    
Max Wind Speed 24 mph    
Max Gust Speed 30 mph    
Visibility 8 miles    
Events Rain    
T = Trace of Precipitation, MM = Missing Value Source: NWS Daily Summary

Daily Weather History Graph

Daily Weather History Graph

Search for Another Location

Airport:

Trip Planner

Search our weather history database for the weather conditions in past years. The results will help you decide how hot, cold, wet, or windy it might be!

Date:

Astronomy

May. 22, 2013 Rise Set
Actual Time 5:48 AM MDT 9:19 PM MDT
Civil Twilight 5:10 AM MDT 9:58 PM MDT
Nautical Twilight 4:18 AM MDT 10:50 PM MDT
Astronomical Twilight 3:09 AM MDT 12:00 AM MDT
Moon 6:36 PM MDT (5/22) 4:08 AM MDT (5/22)
Length of Visible Light 16h 48m
Length of Day
15h 30m
Waxing Gibbous, 92% of the Moon is Illuminated
May 22
Waxing Gibbous
May 24
Full
May 31
Last Quarter
Jun 8
New
Jun 16
First Quarter

Hourly Weather History & Observations

Time (MDT) Temp. Windchill Dew Point Humidity Pressure Visibility Wind Dir Wind Speed Gust Speed Precip Events Conditions
12:55 AM 57.9 °F - 42.1 °F 56% 29.70 in 10.0 mi South 11.5 mph - 0.00 in Rain Light Rain
1:55 AM 54.0 °F - 44.1 °F 69% 29.68 in 10.0 mi North 9.2 mph - 0.00 in   Mostly Cloudy
2:55 AM 54.0 °F - 37.9 °F 55% 29.62 in 10.0 mi NNE 10.4 mph - N/A   Scattered Clouds
3:55 AM 57.9 °F - 35.1 °F 42% 29.59 in 10.0 mi NE 11.5 mph - N/A   Clear
4:55 AM 55.0 °F - 37.9 °F 53% 29.61 in 10.0 mi Calm Calm - N/A   Partly Cloudy
5:55 AM 53.1 °F - 39.9 °F 61% 29.60 in 10.0 mi NNE 9.2 mph - 0.00 in Rain Light Rain
6:55 AM 55.9 °F - 41.0 °F 57% 29.61 in 10.0 mi East 8.1 mph - 0.01 in   Overcast
7:55 AM 57.0 °F - 41.0 °F 55% 29.63 in 10.0 mi East 12.7 mph - N/A   Overcast
8:55 AM 54.0 °F - 44.1 °F 69% 29.66 in 10.0 mi NNE 6.9 mph - 0.00 in Rain Light Rain
9:55 AM 59.0 °F - 43.0 °F 55% 29.66 in 10.0 mi NE 17.3 mph 21.9 mph 0.01 in   Overcast
10:55 AM 59.0 °F - 42.1 °F 53% 29.66 in 10.0 mi NE 11.5 mph 27.6 mph N/A   Overcast
11:55 AM 61.0 °F - 41.0 °F 48% 29.66 in 10.0 mi NE 16.1 mph 24.2 mph N/A   Overcast
12:55 PM 63.0 °F - 39.9 °F 43% 29.67 in 10.0 mi ENE 17.3 mph 25.3 mph N/A   Partly Cloudy
1:55 PM 61.0 °F - 39.9 °F 46% 29.70 in 10.0 mi East 17.3 mph 26.5 mph N/A   Overcast
2:55 PM 61.0 °F - 44.1 °F 54% 29.72 in 10.0 mi SE 6.9 mph 17.3 mph N/A   Overcast
3:55 PM 54.0 °F - 46.9 °F 77% 29.77 in 8.0 mi SW 4.6 mph - 0.00 in Rain Light Rain
4:53 PM 48.2 °F - 46.4 °F 93% 29.81 in 3.0 mi SSW 9.2 mph - 0.07 in Rain Rain
4:55 PM 48.9 °F - 46.9 °F 93% 29.82 in 3.0 mi SSW 9.2 mph - 0.08 in Rain Rain
5:04 PM 48.2 °F - 46.4 °F 93% 29.82 in 2.5 mi South 5.8 mph - 0.04 in Rain Rain
5:13 PM 50.0 °F - 48.2 °F 94% 29.83 in 3.0 mi SSE 8.1 mph - 0.07 in Rain Rain
5:21 PM 50.0 °F - 48.2 °F 94% 29.84 in 2.5 mi SSE 9.2 mph - 0.11 in Rain Heavy Rain
5:48 PM 46.4 °F 41.9 °F 46.4 °F 100% 29.85 in 5.0 mi South 9.2 mph - 0.26 in Rain Rain
5:55 PM 48.0 °F - 46.0 °F 93% 29.86 in 7.0 mi South 11.5 mph 16.1 mph 0.27 in Rain Rain
6:30 PM 44.6 °F 38.1 °F 42.8 °F 93% 29.87 in 5.0 mi SSW 13.8 mph - 0.04 in Rain Rain
6:47 PM 42.8 °F 36.2 °F 39.2 °F 87% 29.90 in 6.0 mi SSW 12.7 mph 23.0 mph 0.08 in Rain Rain
6:55 PM 42.1 °F 36.1 °F 39.9 °F 92% 29.93 in 8.0 mi SSW 10.4 mph 19.6 mph 0.10 in Rain Rain
7:38 PM 42.8 °F 37.0 °F 39.2 °F 87% 29.95 in 6.0 mi South 10.4 mph - 0.07 in Rain Rain
7:55 PM 42.1 °F 37.7 °F 39.0 °F 89% 29.96 in 5.0 mi SSW 6.9 mph - 0.10 in Rain Light Rain
8:30 PM 41.0 °F 36.4 °F 39.2 °F 93% 29.95 in 10.0 mi South 6.9 mph - 0.02 in Rain Light Rain
8:55 PM 41.0 °F 37.1 °F 39.0 °F 93% 29.97 in 10.0 mi South 5.8 mph - 0.02 in Rain Light Rain
9:30 PM 41.0 °F 34.3 °F 39.2 °F 93% 29.97 in 10.0 mi South 11.5 mph - 0.01 in Rain Light Rain
9:41 PM 41.0 °F 35.8 °F 39.2 °F 93% 29.98 in 5.0 mi South 8.1 mph - 0.02 in Rain Rain
9:55 PM 41.0 °F 36.4 °F 39.0 °F 93% 30.01 in 6.0 mi South 6.9 mph - 0.03 in Rain Rain
10:05 PM 41.0 °F 36.4 °F 39.2 °F 93% 30.01 in 5.0 mi South 6.9 mph - 0.02 in Rain Rain
10:18 PM 39.2 °F 35.0 °F 37.4 °F 93% 30.01 in 5.0 mi South 5.8 mph - 0.04 in Rain Rain
10:55 PM 39.9 °F 35.1 °F 37.9 °F 93% 30.04 in 6.0 mi South 6.9 mph - 0.10 in Rain Rain
11:55 PM 37.9 °F 34.4 °F 36.0 °F 93% 30.04 in 8.0 mi South 4.6 mph - 0.11 in Rain Light Rain